This demonstration page uses our WeatherBlox Daily Observations layout. Learn more.

Left ArrowRight Arrow

39.01783, -85.05884

Hourly Observations for September 26, 2020

Temp ( °F °C ) Dew Point ( °F °C ) Humidity (%) Winds ( mph kmh ) Pressure ( in mb ) Visibility ( mi km ) Precip ( " mm )
12:52 am 00:52 Clear 65 18.3 60 15.6 84 84 SSW 7 11 29.97 1015 10 16 0.00 0.00
1:52 am 01:52 Mostly Clear 64 17.8 60 15.6 87 87 SSW 5 7 29.96 1015 10 16 0.00 0.00
2:52 am 02:52 Clear 61 16.1 58 14.4 90 90 SSW 6 9 29.96 1015 10 16 0.00 0.00
3:52 am 03:52 Clear 61 16.1 59 15 93 93 SSW 5 7 29.95 1014 10 16 0.00 0.00
4:11 am 04:11 Clear 61 16.1 59 15 93 93 S 3 6 29.96 1015 2 2 0.00 0.00
4:15 am 04:15 Clear 61 16.1 59 15 93 93 S 3 6 29.96 1015 10 16 0.00 0.00
4:52 am 04:52 Clear 63 17.2 60 15.6 90 90 Calm 29.95 1014 10 16 0.00 0.00
5:52 am 05:52 Clear 61 16.1 59 15 93 93 Calm 29.96 1015 10 16 0.00 0.00
6:52 am 06:52 Clear 62 16.7 60 15.6 93 93 SW 3 6 29.98 1015 8 13 0.00 0.00
7:52 am 07:52 Partly Cloudy with Mist and Fog 59 15 57 13.9 93 93 S 3 6 30.00 1016 6 10 0.00 0.00
8:30 am 08:30 Partly Cloudy with Patchy Fog 61 16.1 59 15 93 93 S 3 6 30.02 1017 5 8 0.00 0.00
8:52 am 08:52 Partly Cloudy with Patchy Fog 62 16.7 61 16.1 96 96 S 3 6 30.01 1016 3 5 0.00 0.00
9:16 am 09:16 Cloudy with Patchy Fog 63 17.2 62 16.7 97 97 SW 3 6 30.03 1017 3 5 0.00 0.00
9:48 am 09:48 Cloudy 64 18 63 17 94 94 WSW 5 7 30.02 1017 7 11 0.00 0.00
9:52 am 09:52 Cloudy 65 18.3 63 17.2 93 93 W 6 9 30.01 1016 7 11 0.00 0.00
10:27 am 10:27 Cloudy 68 20 62 16.7 81 81 SW 7 11 30.02 1017 10 16 0.00 0.00
10:52 am 10:52 Cloudy 69 20.6 62 16.7 78 78 SSW 6 9 30.02 1017 10 16 0.00 0.00
10:54 am 10:54 Cloudy 69 20.6 62 16.7 78 78 VRB 7 11 30.02 1016 10 16 0.00 0.00
11:52 am 11:52 Cloudy 71 21.7 63 17.2 76 76 S 7 11 30.01 1016 10 16 0.00 0.00
12:45 pm 12:45 Mostly Cloudy 73 22.8 62 16.7 69 69 SW 10 17 29.97 1015 10 16 0.00 0.00
12:52 pm 12:52 Mostly Cloudy 75 23.9 63 17.2 66 66 S 9 15 29.98 1015 10 16 0.00 0.00
1:22 pm 13:22 Cloudy 74 23.3 62 16.7 67 67 SSW 10 17 29.96 1014 10 16 0.00 0.00
1:52 pm 13:52 Mostly Cloudy 74 23.3 62 16.7 67 67 S 13 20 29.96 1015 10 16 0.00 0.00
2:52 pm 14:52 Cloudy 75 23.9 61 16.1 62 62 S 13 20 29.94 1014 10 16 0.00 0.00
3:52 pm 15:52 Cloudy 74 23.3 61 16.1 64 64 SSW 10 17 29.93 1014 10 16 0.00 0.00
4:52 pm 16:52 Mostly Cloudy 75 23.9 61 16.1 62 62 S 10 17 29.91 1013 10 16 0.00 0.00
5:52 pm 17:52 Mostly Cloudy 76 24.4 61 16.1 60 60 SSW 10 17 29.91 1013 10 16 0.00 0.00
6:52 pm 18:52 Partly Cloudy 73 22.8 60 15.6 64 64 SSW 8 13 29.91 1013 10 16 0.00 0.00
7:52 pm 19:52 Mostly Clear 69 20.6 60 15.6 73 73 SSW 6 9 29.91 1013 10 16 0.00 0.00
8:52 pm 20:52 Mostly Clear 67 19.4 60 15.6 79 79 S 7 11 29.90 1013 10 16 0.00 0.00
9:52 pm 21:52 Clear 65 18.3 60 15.6 84 84 SSW 7 11 29.91 1013 10 16 0.00 0.00
10:52 pm 22:52 Clear 64 17.8 59 15 84 84 SSW 7 11 29.91 1013 10 16 0.00 0.00
11:52 pm 23:52 Clear 62 16.7 59 15 90 90 S 6 9 29.91 1013 10 16 0.00 0.00

Powered by AerisWeather